This is the latest recevied weather packets stored in our database for station/object K4DFD-13. If no packets are shown the sender has not sent any weather packets the latest 10 day(s).
| Time | Temp. | Humidity | Pressure | Rain* | Wind** | Luminosity | Snow |
|---|---|---|---|---|---|---|---|
| 1776984508 | 25° C | 35% | 1015.4 hPa | 0 mm | - | - | - |
| 1776984207 | 25° C | 34% | 1015.4 hPa | 0 mm | - | - | - |
| 1776983907 | 25° C | 34% | 1015.5 hPa | 0 mm | - | - | - |
| 1776983607 | 25° C | 35% | 1015.4 hPa | 0 mm | - | - | - |
| 1776983306 | 25.56° C | 35% | 1015.5 hPa | 0 mm | - | - | - |
| 1776983006 | 25.56° C | 34% | 1015.5 hPa | 0 mm | - | - | - |
| 1776982706 | 25.56° C | 34% | 1015.5 hPa | 0 mm | - | - | - |
| 1776982405 | 25.56° C | 33% | 1015.3 hPa | 0 mm | - | - | - |
| 1776982105 | 25.56° C | 35% | 1015.4 hPa | 0 mm | - | - | - |
| 1776981805 | 25.56° C | 35% | 1015.4 hPa | 0 mm | - | - | - |
| 1776981504 | 25.56° C | 34% | 1015.4 hPa | 0 mm | - | - | - |
| 1776981204 | 25.56° C | 34% | 1015.4 hPa | 0 mm | - | - | - |
| 1776981183 | 25.56° C | 34% | 1015.4 hPa | 0 mm | - | - | - |
| 1776976152 | 25.56° C | 31% | 1015.7 hPa | 0 mm | - | - | - |
| 1776975862 | 25.56° C | 31% | 1015.7 hPa | 0 mm | - | - | - |
| 1776975551 | 25.56° C | 34% | 1015.8 hPa | 0 mm | - | - | - |
| 1776975251 | 25.56° C | 34% | 1015.8 hPa | 0 mm | - | - | - |
| 1776974950 | 25.56° C | 34% | 1016 hPa | 0 mm | - | - | - |
| 1776974650 | 25.56° C | 34% | 1015.8 hPa | 0 mm | - | - | - |
| 1776974370 | 25.56° C | 33% | 1016 hPa | 0 mm | - | - | - |
| 1776974049 | 25.56° C | 34% | 1016.2 hPa | 0 mm | - | - | - |
| 1776973749 | 25.56° C | 35% | 1016.4 hPa | 0 mm | - | - | - |
| 1776973449 | 25.56° C | 35% | 1016.4 hPa | 0 mm | - | - | - |
| 1776973168 | 25.56° C | 36% | 1016.5 hPa | 0 mm | - | - | - |
| 1776972848 | 25.56° C | 35% | 1016.5 hPa | 0 mm | - | - | - |
* Rain latest hour (hover to see other rain measurements)
** Current wind speed in m/s (hover to see current wind gust speed)